Vorticity
4 4 4 5 3 4 6 7 7 7 8 8 7 6 7 7 6 6 6 6 7 7 7 6 6 5 4 4 4 3 4 4 3
6 6 5 4 4 6 8 7 6 7 7 7 8 7 6 8 8 6 6 5 5 5 5 6 5 5 5 4 4 5 5 4 4
7 6 5 5 5 7 7 6 5 7 5 5 7 7 6 6 5 5 5 5 6 5 4 5 5 5 5 4 4 4 3 4 4
5 7 7 6 5 7 7 6 5 6 4 4 4 5 5 4 4 5 5 5 5 5 5 5 6 6 6 5 4 5 5 5 6
5 7 7 6 5 5 6 6 6 7 5 3 3 4 3 4 4 4 5 6 7 7 7 7 7 7 7 6 6 6 6 6 6
10 6 7 7 6 4 5 6 7 9 6 5 4 5 4 4 5 5 5 6 7 7 8 8 7 6 6 5 5 5 5 6 6
9 9 9 9 7 5 3 6 5 7 8 7 5 5 5 4 4 5 6 7 7 7 5 5 4 3 3 4 5 7 7 6 7
11 11 10 9 8 5 4 5 8 6 6 7 6 6 4 4 4 4 5 6 5 4 3 4 4 4 3 4 3 3 3 3 3
1 6 9 9 8 8 7 8 8 7 6 8 8 6 4 4 4 4 4 3 4 4 4 4 4 3 2 2 4 3 2 2 2
4 6 7 8 8 7 8 9 9 10 9 7 6 5 5 5 4 4 4 5 4 5 4 2 3 2 2 2 2 3 2 3 2
4 5 6 5 5 5 12 11 7 5 5 5 6 6 5 4 4 4 4 5 5 4 4 5 4 2 3 2 2 1 1 4 3
3 4 1 1 7 5 5 2 3 5 7 9 7 5 7 8 7 5 5 5 4 5 3 4 3 4 5 3 -0 2 5 6 5
4 5 5 4 7 10 1 -4 -1 3 4 0 3 9 9 8 9 10 11 11 10 6 5 5 3 4 3 1 2 2 7 8 1
5 4 2 2 1 -1 -2 0 2 1 3 3 3 -1 -0 5 7 2 -1 4 7 6 4 6 7 4 4 0 -5 -1 4 7 4
3 4 1 2 2 3 2 1 -2 -3 -1 1 -3 1 -0 3 5 6 4 6 5 6 10 8 11 9 10 3 -1 -0 3 6 5
1 1 1 -2 -2 0 1 1 2 3 4 6 4 4 4 -2 -0 -1 6 13 2 2 3 4 4 7 10 8 3 2 5 6 5
0 -0 0 0 -1 0 1 0 -0 0 1 -0 -0 -1 1 2 10 -4 -1 4 11 9 4 1 6 6 9 10 3 1 3 4 3
1 1 0 -0 1 -0 -2 1 -0 0 -1 2 2 3 3 7 25 8 -2 -1 -0 2 11 4 6 3 4 3 7 9 6 2 8
3 2 2 1 0 -1 3 1 1 -0 1 1 2 1 -3 6 -15 19 2 2 -1 9 3 14 9 8 7 4 2 7 8 6 5
5 4 4 3 3 2 1 2 1 1 1 2 -1 -7 1 4 -5 14 5 -0 3 6 -1 17 9 12 2 7 11 6 4 9 13
Height
5864 5864 5865 5865 5865 5866 5865 5865 5864 5863 5863 5864 5863 5863 5863 5863 5863 5862 5861 5861 5861 5860 5860 5860 5859 5859 5858 5857 5857 5856 5856 5855 5855
5863 5863 5864 5864 5864 5864 5864 5864 5864 5863 5862 5862 5862 5862 5862 5862 5862 5862 5861 5860 5860 5860 5860 5859 5859 5858 5857 5857 5856 5855 5855 5855 5854
5861 5862 5862 5863 5863 5864 5863 5863 5863 5863 5862 5862 5861 5861 5861 5861 5861 5861 5860 5860 5860 5859 5859 5858 5857 5857 5856 5855 5855 5855 5855 5854 5854
5859 5860 5861 5862 5862 5863 5863 5862 5862 5862 5862 5862 5862 5861 5861 5861 5860 5860 5859 5859 5859 5859 5858 5857 5857 5856 5855 5855 5854 5854 5854 5853 5852
5857 5858 5859 5860 5861 5861 5862 5860 5860 5860 5861 5861 5861 5861 5860 5860 5860 5859 5859 5859 5858 5857 5856 5856 5855 5854 5854 5854 5853 5853 5852 5851 5850
5855 5856 5856 5858 5859 5859 5860 5858 5858 5859 5859 5859 5860 5860 5859 5859 5858 5858 5857 5856 5856 5855 5855 5854 5854 5853 5853 5852 5852 5851 5849 5848 5847
5853 5853 5854 5855 5856 5858 5858 5857 5857 5857 5858 5858 5858 5858 5858 5858 5857 5857 5856 5855 5855 5854 5854 5853 5853 5852 5851 5850 5849 5848 5846 5845 5843
5850 5851 5852 5853 5854 5855 5856 5856 5855 5855 5856 5856 5856 5856 5856 5856 5855 5855 5854 5854 5854 5853 5852 5851 5850 5849 5848 5847 5845 5844 5842 5840 5839
5849 5849 5850 5851 5852 5853 5854 5854 5853 5853 5853 5853 5854 5854 5854 5854 5853 5853 5852 5852 5851 5850 5849 5848 5847 5846 5844 5843 5841 5839 5838 5836 5834
5846 5847 5848 5849 5850 5850 5852 5852 5851 5852 5851 5851 5851 5851 5851 5850 5850 5850 5849 5848 5848 5846 5845 5844 5842 5841 5839 5838 5836 5835 5833 5831 5828
5843 5844 5846 5846 5847 5848 5849 5849 5849 5849 5849 5849 5848 5848 5848 5847 5846 5846 5845 5844 5843 5842 5841 5840 5838 5836 5834 5833 5831 5830 5828 5825 5823
5839 5841 5842 5843 5844 5845 5845 5846 5846 5845 5845 5846 5845 5845 5844 5844 5843 5842 5841 5840 5839 5838 5836 5834 5833 5831 5829 5827 5825 5823 5821 5818 5816
5835 5836 5837 5839 5840 5841 5842 5842 5842 5842 5842 5842 5842 5841 5840 5839 5838 5837 5835 5834 5833 5832 5831 5829 5827 5825 5823 5821 5819 5816 5813 5811 5808
5830 5831 5833 5834 5835 5837 5837 5838 5838 5838 5838 5838 5837 5837 5836 5835 5833 5832 5831 5829 5827 5826 5824 5822 5820 5817 5815 5813 5811 5808 5806 5803 5800
5824 5826 5828 5829 5830 5831 5832 5833 5833 5833 5832 5832 5832 5831 5830 5829 5827 5826 5825 5823 5821 5818 5816 5813 5811 5809 5807 5805 5802 5799 5797 5794 5791
5818 5820 5822 5823 5824 5825 5827 5827 5826 5827 5826 5826 5826 5825 5824 5822 5821 5819 5817 5815 5813 5810 5808 5805 5803 5801 5798 5796 5793 5790 5787 5784 5781
5810 5812 5814 5816 5818 5819 5820 5820 5820 5820 5820 5819 5819 5818 5817 5815 5813 5812 5809 5807 5805 5802 5799 5796 5794 5791 5789 5786 5783 5780 5776 5773 5770
5802 5805 5807 5808 5809 5811 5812 5812 5813 5812 5812 5811 5811 5810 5809 5805 5804 5803 5800 5798 5796 5793 5789 5786 5784 5781 5778 5775 5772 5768 5764 5760 5757
5795 5797 5799 5801 5802 5803 5803 5803 5803 5803 5803 5802 5801 5800 5800 5798 5797 5794 5791 5788 5785 5782 5779 5775 5772 5769 5766 5763 5760 5756 5752 5748 5743
5787 5788 5790 5791 5793 5793 5794 5794 5794 5793 5793 5792 5791 5790 5789 5788 5786 5783 5780 5776 5773 5770 5766 5762 5760 5756 5753 5750 5747 5744 5739 5734 5730